Location: Kelshall
(52.0000°N, 0.0500°W)
Time: 10:33:25
(UTC+00:00)

Okean 1 Rocket - Pass Details

Date: 20 January 2021
Orbit: 605 x 635 km, 82.5° (Epoch: 05 March)

Event Time Altitude Azimuth Distance (km) Brightness Sun altitude
Exits shadow 04:33:39 16° 19° (NNE) 1,669 5.5 -30.6°
Drops below altitude 10° 04:34:33 10° 16° (NNE) 2,026 5.9 -30.5°
Sets 04:36:49 0° 14° (NNE) 2,935 6.8 -30.1°
